sat.trackr.live / text

‹ back to catalog

STARLINK-34627

NORAD 65016 · 2025-161B

PAYLOAD ACTIVE UNKNOWN

§ Identity

Operator
Country
US
Launch date
2025-07-30
Launch site
AFWTR
Launch vehicle
Mass (kg)
RCS (m²)

Purposes: comms

External: N2YO · Heavens-Above · Gunter

§ Orbital elements

Epoch: 2026-09-20T02:59:17.727072Z

Period
93.85 min
Inclination
53.1574°
Eccentricity
0.0001204
Mean motion
15.34402604 rev/d
Perigee alt
461.9 km
Apogee alt
463.5 km
Semi-major
6,840.8 km
B*
5.0278e-4
RAAN
109.3052°
Arg perigee
87.6483°
Mean anomaly
272.4658°
Rev number
6,523

§ Raw data

STARLINK-346271 65016U 25161B   26263.12451073  .00016650  00000+0  50278-3 0  99972 65016  53.1574 109.3052 0001204  87.6483 272.4658 15.34402604 65237

JSON: /api/v1/satellites/65016 · /tle

For live sub-satellite position, see the globe view (requires WebGL).

§ Visibility from observer

Set your observer location to see the next 7 days of passes ≥ 10°. The values pass through the URL so the page stays shareable.

No JS? Fill the form by hand. The geolocation button needs JavaScript.